CXA8073 ZGZH-ZPPP

Flight info

Callsign CXA8073
Flight time 0h 53m
Altitude 36100
Route LBN A599 LXI LXI8F
Aircraft B737/M-SDE2E3FGHIRWXY/LB1

Departure

Time 2026-04-28 12:59
Airport Liuzhou Bailian Airport / Bailian Air Base (ZGZH)

Arrival

Time 2026-04-28 13:53
Airport Kunming Changshui International Airport (ZPPP)
Time Latitude Longitude Altitude Speed Heading
2026-04-28 12:43 24.20382 109.39846 285 ft 0 kts 66°
2026-04-28 12:52 24.20382 109.39844 269 ft 2 kts 66°
2026-04-28 12:52 24.20371 109.39820 269 ft 4 kts 59°
2026-04-28 12:53 24.20355 109.39796 285 ft 4 kts 47°
2026-04-28 12:53 24.20335 109.39778 281 ft 4 kts 18°
2026-04-28 12:53 24.20317 109.39776 279 ft 0 kts 335°
2026-04-28 12:56 24.20384 109.39742 282 ft 25 kts 334°
2026-04-28 12:56 24.20417 109.39657 281 ft 16 kts 242°
2026-04-28 12:56 24.20336 109.39472 282 ft 31 kts 245°
2026-04-28 12:57 24.20261 109.39408 281 ft 14 kts 161°
2026-04-28 12:57 24.20148 109.39500 284 ft 18 kts 178°
2026-04-28 12:57 24.19994 109.39541 285 ft 26 kts 159°
2026-04-28 12:57 24.19858 109.39612 285 ft 18 kts 153°
2026-04-28 12:58 24.19751 109.39645 284 ft 0 kts 128°
2026-04-28 12:58 24.19752 109.39661 284 ft 0 kts 72°
2026-04-28 12:58 24.19755 109.39662 284 ft 0 kts 29°
2026-04-28 12:58 24.19767 109.39658 283 ft 5 kts 340°
2026-04-28 12:59 24.19908 109.39584 284 ft 53 kts 335°
2026-04-28 12:59 24.20457 109.39306 283 ft 118 kts 335°
2026-04-28 12:59 24.21343 109.38861 434 ft 154 kts 335°
2026-04-28 12:59 24.22287 109.38330 1129 ft 153 kts 334°
2026-04-28 13:00 24.23192 109.37806 1876 ft 139 kts 337°
2026-04-28 13:00 24.23959 109.37064 2315 ft 166 kts 302°
2026-04-28 13:00 24.24098 109.35681 2560 ft 206 kts 261°
2026-04-28 13:00 24.23342 109.34243 2941 ft 231 kts 220°
2026-04-28 13:01 24.21858 109.33563 3626 ft 233 kts 188°
2026-04-28 13:01 24.20265 109.33316 4500 ft 227 kts 188°
2026-04-28 13:01 24.18708 109.33076 5303 ft 226 kts 189°
2026-04-28 13:01 24.17132 109.32817 5966 ft 232 kts 190°
2026-04-28 13:02 24.15532 109.32538 6715 ft 232 kts 191°
2026-04-28 13:02 24.14479 109.32348 7249 ft 232 kts 193°
2026-04-28 13:02 24.12362 109.31956 8263 ft 234 kts 193°
2026-04-28 13:02 24.10748 109.31644 9099 ft 235 kts 194°
2026-04-28 13:03 24.09134 109.31310 9866 ft 238 kts 192°
2026-04-28 13:03 24.07483 109.31009 10537 ft 243 kts 191°
2026-04-28 13:03 24.05815 109.30697 11278 ft 243 kts 194°
2026-04-28 13:03 24.04162 109.30228 11873 ft 250 kts 206°
2026-04-28 13:04 24.02543 109.29351 12142 ft 274 kts 210°
2026-04-28 13:04 24.00782 109.28331 12366 ft 299 kts 211°
2026-04-28 13:04 23.98861 109.27223 12562 ft 325 kts 210°
2026-04-28 13:04 23.97502 109.26447 12669 ft 341 kts 210°
2026-04-28 13:05 23.94609 109.24817 13402 ft 355 kts 209°
2026-04-28 13:05 23.93146 109.24001 13866 ft 357 kts 209°
2026-04-28 13:05 23.90182 109.22353 14892 ft 358 kts 209°
2026-04-28 13:05 23.87981 109.21130 15654 ft 360 kts 209°
2026-04-28 13:06 23.85733 109.19882 16347 ft 363 kts 209°
2026-04-28 13:06 23.84233 109.19050 16832 ft 366 kts 209°
2026-04-28 13:06 23.81956 109.17786 17558 ft 368 kts 209°
2026-04-28 13:06 23.79727 109.16411 18233 ft 369 kts 220°
2026-04-28 13:07 23.77999 109.14355 18787 ft 369 kts 239°
2026-04-28 13:07 23.76946 109.11806 19389 ft 371 kts 253°
2026-04-28 13:07 23.76598 109.09002 19867 ft 378 kts 269°
2026-04-28 13:07 23.76712 109.06116 20448 ft 381 kts 272°
2026-04-28 13:08 23.76905 109.03220 20996 ft 384 kts 273°
2026-04-28 13:08 23.77119 109.00304 21555 ft 387 kts 273°
2026-04-28 13:08 23.77332 108.97360 22086 ft 390 kts 273°
2026-04-28 13:08 23.77534 108.94427 22608 ft 393 kts 272°
2026-04-28 13:09 23.77731 108.91424 23121 ft 396 kts 272°
2026-04-28 13:09 23.77921 108.88410 23588 ft 399 kts 272°
2026-04-28 13:09 23.78106 108.85373 23981 ft 402 kts 272°
2026-04-28 13:09 23.78290 108.82312 24381 ft 405 kts 272°
2026-04-28 13:10 23.78474 108.79231 24772 ft 408 kts 272°
2026-04-28 13:10 23.78657 108.76128 25148 ft 412 kts 272°
2026-04-28 13:10 23.78842 108.72991 25485 ft 415 kts 272°
2026-04-28 13:10 23.79025 108.69867 25878 ft 418 kts 272°
2026-04-28 13:11 23.79211 108.66689 26258 ft 420 kts 272°
2026-04-28 13:11 23.79398 108.63486 26607 ft 423 kts 272°
2026-04-28 13:11 23.79586 108.60260 26987 ft 425 kts 272°
2026-04-28 13:11 23.79773 108.57029 27346 ft 428 kts 272°
2026-04-28 13:12 23.79961 108.53777 27685 ft 431 kts 272°
2026-04-28 13:12 23.80149 108.50499 27995 ft 433 kts 272°
2026-04-28 13:12 23.80338 108.47203 28324 ft 436 kts 272°
2026-04-28 13:12 23.80525 108.43934 28641 ft 438 kts 272°
2026-04-28 13:13 23.80715 108.40607 28971 ft 440 kts 272°
2026-04-28 13:13 23.80904 108.37255 29262 ft 443 kts 272°
2026-04-28 13:13 23.81095 108.33881 29552 ft 446 kts 272°
2026-04-28 13:13 23.81285 108.30497 29857 ft 446 kts 272°
2026-04-28 13:14 23.81474 108.27125 29904 ft 450 kts 272°
2026-04-28 13:14 23.82206 108.13964 29953 ft 471 kts 272°
2026-04-28 13:15 23.83922 107.79712 29880 ft 461 kts 272°
2026-04-28 13:15 23.85653 107.58302 29983 ft 465 kts 273°
2026-04-28 13:16 23.86461 107.47157 29939 ft 470 kts 273°
2026-04-28 13:16 23.86965 107.40002 29935 ft 472 kts 273°
2026-04-28 13:17 23.87475 107.32860 29938 ft 470 kts 273°
2026-04-28 13:17 23.87983 107.25742 29945 ft 469 kts 273°
2026-04-28 13:18 23.88528 107.17823 29954 ft 469 kts 272°
2026-04-28 13:18 23.92068 106.64386 29960 ft 468 kts 272°
2026-04-28 13:19 23.92780 106.57320 29982 ft 469 kts 280°
2026-04-28 13:19 24.01868 106.13439 29979 ft 468 kts 280°
2026-04-28 13:20 24.03835 106.03302 30006 ft 468 kts 280°
2026-04-28 13:20 24.05200 105.96294 30003 ft 467 kts 280°
2026-04-28 13:21 24.06566 105.89412 30027 ft 464 kts 281°
2026-04-28 13:21 24.07939 105.82503 30012 ft 462 kts 280°
2026-04-28 13:21 24.08613 105.79104 29606 ft 451 kts 280°
2026-04-28 13:22 24.09277 105.75750 28673 ft 450 kts 280°
2026-04-28 13:22 24.09939 105.72395 27906 ft 448 kts 280°
2026-04-28 13:22 24.10602 105.69066 27768 ft 451 kts 281°
2026-04-28 13:22 24.11364 105.65714 27653 ft 457 kts 283°
2026-04-28 13:23 24.12204 105.62335 27577 ft 462 kts 284°
2026-04-28 13:23 24.13068 105.58940 27549 ft 463 kts 284°
2026-04-28 13:23 24.13921 105.55566 27543 ft 465 kts 284°
2026-04-28 13:23 24.14775 105.52145 27541 ft 466 kts 283°
2026-04-28 13:24 24.15619 105.48714 27535 ft 466 kts 283°
2026-04-28 13:24 24.16457 105.45277 27551 ft 466 kts 283°
2026-04-28 13:24 24.17289 105.41848 27544 ft 466 kts 283°
2026-04-28 13:24 24.18120 105.38416 27551 ft 466 kts 283°
2026-04-28 13:25 24.18950 105.34983 27552 ft 467 kts 283°
2026-04-28 13:25 24.19781 105.31545 27563 ft 467 kts 283°
2026-04-28 13:25 24.20612 105.28107 27556 ft 467 kts 283°
2026-04-28 13:25 24.21442 105.24673 27554 ft 467 kts 283°
2026-04-28 13:26 24.22272 105.21230 27573 ft 467 kts 283°
2026-04-28 13:26 24.23039 105.17807 27568 ft 467 kts 282°
2026-04-28 13:26 24.23764 105.14334 27561 ft 467 kts 281°
2026-04-28 13:26 24.24473 105.10845 27573 ft 468 kts 281°
2026-04-28 13:27 24.25180 105.07363 27581 ft 468 kts 281°
2026-04-28 13:27 24.25892 105.03883 27576 ft 468 kts 281°
2026-04-28 13:27 24.26612 105.00401 27584 ft 468 kts 281°
2026-04-28 13:27 24.27334 104.96923 27578 ft 468 kts 281°
2026-04-28 13:28 24.28058 104.93443 27587 ft 468 kts 281°
2026-04-28 13:28 24.28781 104.89967 27597 ft 469 kts 281°
2026-04-28 13:28 24.29504 104.86483 27608 ft 469 kts 281°
2026-04-28 13:28 24.30219 104.83034 27597 ft 468 kts 281°
2026-04-28 13:29 24.30936 104.79566 27592 ft 464 kts 281°
2026-04-28 13:29 24.31649 104.76126 27594 ft 462 kts 281°
2026-04-28 13:29 24.32395 104.72690 27591 ft 462 kts 281°
2026-04-28 13:29 24.33164 104.69263 27600 ft 462 kts 282°
2026-04-28 13:30 24.33941 104.65844 27604 ft 462 kts 282°
2026-04-28 13:30 24.34720 104.62419 27608 ft 463 kts 282°
2026-04-28 13:30 24.35496 104.58990 27628 ft 463 kts 282°
2026-04-28 13:30 24.36268 104.55561 27618 ft 463 kts 281°
2026-04-28 13:31 24.37803 104.48690 27633 ft 464 kts 281°
2026-04-28 13:31 24.38570 104.45245 27618 ft 463 kts 281°
2026-04-28 13:31 24.39318 104.41887 27481 ft 458 kts 281°
2026-04-28 13:32 24.40076 104.38471 27062 ft 464 kts 281°
2026-04-28 13:32 24.40839 104.35030 26647 ft 465 kts 281°
2026-04-28 13:32 24.41614 104.31533 26208 ft 466 kts 281°
2026-04-28 13:32 24.42371 104.28110 25805 ft 465 kts 281°
2026-04-28 13:33 24.43134 104.24663 25378 ft 464 kts 282°
2026-04-28 13:33 24.43895 104.21220 24977 ft 462 kts 282°
2026-04-28 13:33 24.44645 104.17829 24566 ft 453 kts 282°
2026-04-28 13:33 24.45380 104.14498 24173 ft 447 kts 282°
2026-04-28 13:34 24.46111 104.11180 23795 ft 446 kts 282°
2026-04-28 13:34 24.46842 104.07859 23714 ft 449 kts 282°
2026-04-28 13:34 24.47574 104.04524 23653 ft 447 kts 282°
2026-04-28 13:34 24.48296 104.01229 23634 ft 444 kts 282°
2026-04-28 13:35 24.49019 103.97926 23636 ft 446 kts 282°
2026-04-28 13:35 24.49744 103.94609 23625 ft 446 kts 282°
2026-04-28 13:35 24.50468 103.91300 23632 ft 445 kts 282°
2026-04-28 13:35 24.51191 103.87993 23624 ft 445 kts 282°
2026-04-28 13:36 24.51913 103.84685 23632 ft 445 kts 282°
2026-04-28 13:36 24.52634 103.81378 23635 ft 445 kts 282°
2026-04-28 13:36 24.53344 103.78119 23634 ft 445 kts 282°
2026-04-28 13:36 24.54056 103.74806 23632 ft 445 kts 280°
2026-04-28 13:37 24.54428 103.71435 23635 ft 443 kts 271°
2026-04-28 13:37 24.54499 103.68050 23629 ft 444 kts 270°
2026-04-28 13:37 24.54509 103.64662 23634 ft 444 kts 269°
2026-04-28 13:37 24.54519 103.61265 23644 ft 444 kts 269°
2026-04-28 13:38 24.54547 103.57874 23643 ft 444 kts 270°
2026-04-28 13:38 24.54595 103.54481 23289 ft 446 kts 270°
2026-04-28 13:38 24.54659 103.51098 22819 ft 439 kts 270°
2026-04-28 13:38 24.54728 103.47763 22371 ft 434 kts 271°
2026-04-28 13:39 24.54798 103.44500 21930 ft 432 kts 271°
2026-04-28 13:39 24.54866 103.41217 21485 ft 429 kts 271°
2026-04-28 13:39 24.54933 103.37952 21050 ft 426 kts 270°
2026-04-28 13:39 24.54997 103.34704 20629 ft 424 kts 270°
2026-04-28 13:40 24.55061 103.31471 20200 ft 422 kts 270°
2026-04-28 13:40 24.55123 103.28261 19853 ft 420 kts 270°
2026-04-28 13:40 24.55364 103.25056 19783 ft 423 kts 282°
2026-04-28 13:40 24.56249 103.21977 19777 ft 421 kts 287°
2026-04-28 13:41 24.57183 103.18930 19780 ft 420 kts 287°
2026-04-28 13:41 24.58079 103.15876 19766 ft 420 kts 286°
2026-04-28 13:41 24.58953 103.12809 19761 ft 420 kts 286°
2026-04-28 13:41 24.59820 103.09746 19503 ft 421 kts 286°
2026-04-28 13:42 24.60699 103.06674 19048 ft 419 kts 286°
2026-04-28 13:42 24.61571 103.03640 18597 ft 413 kts 286°
2026-04-28 13:42 24.62432 103.00644 18082 ft 411 kts 286°
2026-04-28 13:42 24.63280 102.97688 17418 ft 410 kts 286°
2026-04-28 13:43 24.64138 102.94696 16670 ft 408 kts 286°
2026-04-28 13:43 24.64983 102.91742 15938 ft 401 kts 286°
2026-04-28 13:43 24.65811 102.88845 15214 ft 394 kts 286°
2026-04-28 13:43 24.66626 102.85992 14518 ft 388 kts 286°
2026-04-28 13:44 24.67427 102.83184 13824 ft 382 kts 286°
2026-04-28 13:44 24.68257 102.80441 13258 ft 371 kts 291°
2026-04-28 13:44 24.69587 102.78086 12718 ft 356 kts 307°
2026-04-28 13:44 24.71129 102.76029 12177 ft 340 kts 306°
2026-04-28 13:45 24.72637 102.74088 11680 ft 329 kts 315°
2026-04-28 13:45 24.74552 102.72856 11205 ft 318 kts 339°
2026-04-28 13:45 24.76654 102.72387 10773 ft 302 kts 353°
2026-04-28 13:45 24.78743 102.72468 10374 ft 302 kts
2026-04-28 13:46 24.80847 102.72756 9975 ft 305 kts
2026-04-28 13:46 24.82958 102.73071 9726 ft 308 kts
2026-04-28 13:46 24.85076 102.73370 9725 ft 304 kts
2026-04-28 13:46 24.87181 102.73653 9722 ft 306 kts
2026-04-28 13:47 24.89287 102.73955 9716 ft 305 kts 11°
2026-04-28 13:47 24.91141 102.74929 9731 ft 283 kts 36°
2026-04-28 13:47 24.92597 102.76211 9683 ft 254 kts 38°
2026-04-28 13:47 24.93877 102.77354 9711 ft 220 kts 38°
2026-04-28 13:48 24.95005 102.78352 9715 ft 199 kts 37°
2026-04-28 13:48 24.96063 102.79278 9749 ft 192 kts 37°
2026-04-28 13:48 24.97129 102.80211 9829 ft 197 kts 37°
2026-04-28 13:48 24.98171 102.81126 9826 ft 189 kts 36°
2026-04-28 13:49 24.99157 102.81990 9735 ft 174 kts 38°
2026-04-28 13:49 25.00092 102.82810 9553 ft 170 kts 37°
2026-04-28 13:49 25.00997 102.83602 9356 ft 164 kts 37°
2026-04-28 13:49 25.01884 102.84380 9151 ft 162 kts 37°
2026-04-28 13:50 25.02767 102.85153 8938 ft 161 kts 38°
2026-04-28 13:50 25.03637 102.85916 8727 ft 157 kts 38°
2026-04-28 13:50 25.04488 102.86662 8522 ft 155 kts 38°
2026-04-28 13:50 25.05329 102.87398 8327 ft 154 kts 38°
2026-04-28 13:51 25.06153 102.88120 8131 ft 152 kts 39°
2026-04-28 13:51 25.06971 102.88836 7927 ft 148 kts 39°
2026-04-28 13:51 25.07777 102.89543 7729 ft 146 kts 40°
2026-04-28 13:51 25.08573 102.90238 7490 ft 145 kts 40°
2026-04-28 13:52 25.09346 102.90917 7265 ft 143 kts 39°
2026-04-28 13:52 25.10099 102.91576 7054 ft 139 kts 41°
2026-04-28 13:52 25.10876 102.92249 6911 ft 137 kts 40°
2026-04-28 13:52 25.11528 102.92831 6903 ft 99 kts 39°
2026-04-28 13:53 25.11951 102.93196 6899 ft 55 kts 39°
2026-04-28 13:53 25.12155 102.93376 6899 ft 30 kts 43°
2026-04-28 13:53 25.12275 102.93554 6899 ft 28 kts 64°
2026-04-28 13:53 25.12311 102.93645 6899 ft 6 kts 63°
2026-04-28 13:54 25.12331 102.93688 6899 ft 6 kts 68°
2026-04-28 13:54 25.12310 102.93726 6898 ft 6 kts 148°
2026-04-28 13:54 25.12271 102.93720 6899 ft 6 kts 216°
2026-04-28 13:54 25.12237 102.93692 6898 ft 6 kts 216°
2026-04-28 13:55 25.12215 102.93673 6898 ft 6 kts 219°
2026-04-28 13:55 25.12167 102.93631 6898 ft 12 kts 218°
2026-04-28 13:55 25.12099 102.93569 6899 ft 13 kts 217°
2026-04-28 13:55 25.12030 102.93510 6899 ft 12 kts 218°
2026-04-28 13:56 25.11964 102.93452 6899 ft 12 kts 219°
2026-04-28 13:56 25.11893 102.93390 6899 ft 16 kts 218°
2026-04-28 13:56 25.11805 102.93367 6900 ft 9 kts 137°
2026-04-28 13:56 25.11752 102.93388 6900 ft 9 kts 195°
2026-04-28 13:57 25.11686 102.93376 6900 ft 12 kts 148°
2026-04-28 13:57 25.11614 102.93461 6899 ft 18 kts 137°
2026-04-28 13:57 25.11533 102.93559 6899 ft 17 kts 130°
2026-04-28 13:57 25.11461 102.93660 6898 ft 19 kts 128°
2026-04-28 13:58 25.11362 102.93795 6896 ft 23 kts 129°
2026-04-28 13:58 25.11306 102.93873 6895 ft 11 kts 128°
2026-04-28 13:58 25.11250 102.93950 6894 ft 15 kts 128°
2026-04-28 13:58 25.11180 102.94030 6893 ft 15 kts 168°
2026-04-28 13:59 25.11151 102.94012 6893 ft 9 kts 222°
2026-04-28 13:59 25.11111 102.93976 6893 ft 0 kts 217°